Location: Shell Point
(30.0571°N, 84.2896°W)
Time: 21:40:02
(UTC-04:00)

Meteor 2-19 Rocket - Visible Passes

Search period start: 22 July 2014 00:00
Search period end: 01 August 2014 00:00
Orbit: 936 x 959 km, 82.5° (Epoch: 22 July)

Date Brightness Start Highest point End Pass type
(mag) Time Alt. Az. Time Alt. Az. Time Alt. Az.
22 Jul 5.9 02:22:53 10° N 02:26:00 32° NNW 02:26:00 32° NNW visible
23 Jul 6.6 00:56:45 10° NNE 00:58:42 16° NE 00:58:42 16° NE visible
23 Jul 6.1 02:40:08 10° NNW 02:42:45 25° NNW 02:42:45 25° NNW visible
24 Jul 6.3 01:12:47 10° NNE 01:15:28 23° NE 01:15:28 23° NE visible
24 Jul 6.5 02:57:44 10° NNW 02:59:31 18° NW 02:59:31 18° NW visible
25 Jul 6.1 01:29:20 10° N 01:32:15 28° NNE 01:32:15 28° NNE visible
25 Jul 6.8 03:15:59 10° NW 03:16:18 11° NW 03:16:18 11° NW visible
26 Jul 6.0 01:46:12 10° N 01:49:03 30° N 01:49:03 30° N visible
27 Jul 6.7 00:20:37 10° NE 00:21:47 13° NE 00:21:47 13° NE visible
27 Jul 6.2 02:03:21 10° NNW 02:05:51 25° NNW 02:05:51 25° NNW visible
28 Jul 6.4 00:36:23 10° NNE 00:38:36 19° NE 00:38:36 19° NE visible
28 Jul 6.5 02:20:49 10° NNW 02:22:40 19° NW 02:22:40 19° NW visible
29 Jul 6.2 00:52:47 10° N 00:55:26 25° NNE 00:55:26 25° NNE visible
29 Jul 6.8 02:38:47 10° NW 02:39:30 12° NW 02:39:30 12° NW visible
30 Jul 6.1 01:09:33 10° N 01:12:17 28° N 01:12:17 28° N visible
30 Jul 6.8 23:44:44 10° NE 23:45:04 11° NE 23:45:04 11° NE visible
31 Jul 6.2 01:26:36 10° NNW 01:29:08 26° NNW 01:29:08 26° NNW visible
